Probability
16 23 32 58 71 52 3 0 0 0 0 0 0 6 6 10 6 10 13 19 26 29 42 58 68 65 61 61 68 68 61 65 81 71 74 68 65 68 68 71 61 61 58 52 48 48 39 42 48
19 32 52 68 58 13 0 0 0 0 0 0 0 0 6 13 13 3 10 23 26 26 32 48 71 74 68 68 65 65 68 71 74 65 68 68 65 61 68 58 55 42 35 48 42 45 45 48 52
26 58 58 65 26 0 0 0 0 0 0 0 3 3 6 13 13 6 16 19 23 26 39 55 71 68 61 65 68 68 68 74 71 68 71 71 65 65 55 48 48 48 45 42 45 45 45 48 48
52 65 52 48 3 0 0 0 0 0 3 3 3 10 13 13 13 6 13 13 23 26 32 52 65 61 61 58 61 65 68 74 71 71 71 74 65 68 52 55 39 45 39 48 45 42 39 39 45
58 55 42 10 0 0 0 0 0 0 0 3 3 6 16 16 6 10 13 13 23 32 35 45 65 61 58 52 55 58 58 65 65 65 61 61 68 65 58 52 35 39 35 35 39 35 32 39 42
55 35 16 0 0 0 0 0 0 0 0 3 3 6 19 10 6 10 13 13 19 32 39 48 68 65 61 55 55 58 55 55 58 55 58 52 55 65 61 42 45 42 35 32 35 35 29 32 29
29 23 10 0 0 0 0 0 0 0 6 3 3 10 16 13 13 13 13 10 19 29 29 42 52 58 58 65 61 61 45 48 45 52 52 52 45 58 55 52 42 39 35 29 32 35 32 23 26
16 13 3 0 0 0 0 0 0 0 3 3 6 10 16 23 13 13 13 16 23 35 35 45 45 48 48 52 48 52 42 42 42 48 52 52 45 45 48 48 45 42 39 32 32 29 29 19 32
6 10 3 0 0 0 0 0 0 0 3 6 6 13 16 10 10 10 13 19 26 35 39 35 39 42 48 35 35 52 45 48 55 52 48 52 52 35 39 39 42 39 32 39 35 32 29 29 35
3 3 0 0 0 0 0 0 0 0 6 6 19 23 16 10 6 10 13 13 19 29 29 32 35 39 35 32 48 55 45 55 58 65 61 68 68 61 35 39 52 48 48 48 48 45 35 26 23
3 3 3 0 0 0 0 0 0 3 6 10 19 19 16 16 13 13 16 19 29 29 26 26 39 48 42 42 39 48 48 71 61 61 65 71 61 58 45 48 58 55 55 45 45 39 23 19 26
3 3 0 0 0 0 0 0 0 0 3 6 13 23 23 16 16 13 23 23 19 19 19 32 35 48 58 52 45 52 48 58 55 61 61 58 65 55 52 58 52 52 52 52 48 45 35 35 32
0 0 0 0 0 0 0 0 3 3 3 10 13 23 19 19 19 19 19 26 26 29 32 35 52 55 58 71 71 52 55 48 52 55 55 52 52 52 55 58 58 55 52 45 48 39 42 32 35
0 0 0 0 0 0 0 0 3 3 3 10 19 19 16 19 19 19 19 26 29 39 35 39 48 61 71 68 74 68 55 65 58 52 52 58 48 58 61 58 68 58 45 42 52 45 39 32 39
0 0 0 0 0 0 0 0 0 3 6 10 19 19 16 16 19 19 19 23 29 42 42 42 48 58 68 71 65 55 48 52 58 65 61 61 48 55 58 52 55 52 52 48 48 35 35 39 29
0 0 0 0 0 0 0 6 6 6 6 10 13 16 16 19 19 19 23 39 39 45 48 48 42 55 68 81 81 68 58 55 58 61 65 61 58 58 65 61 55 61 65 61 61 52 48 32 29
0 0 0 0 0 0 0 6 6 3 3 6 10 13 16 16 16 16 23 35 42 45 55 48 61 52 65 71 77 68 68 68 68 65 65 61 58 55 58 68 65 58 65 61 45 45 52 45 35
0 0 0 0 0 0 0 6 6 6 6 6 6 10 19 23 23 19 19 23 35 42 61 55 74 74 77 74 84 77 74 68 58 65 68 61 58 58 55 68 65 61 65 65 61 58 58 55 61
0 0 0 0 0 0 0 3 6 6 6 6 10 13 23 23 19 23 19 23 35 52 61 68 68 77 74 74 77 81 74 68 68 71 61 61 55 58 68 68 74 71 68 68 61 61 55 52 52
0 0 0 0 0 0 0 0 6 10 10 10 13 16 23 23 29 23 29 32 32 52 71 71 71 71 74 77 81 84 81 77 77 71 71 71 71 65 61 74 71 71 74 68 61 61 65 58 55
0 0 0 0 0 0 0 3 10 13 10 10 13 23 19 23 26 26 26 32 32 45 58 55 71 74 77 77 74 74 77 74 71 71 71 71 68 68 71 71 71 71 68 68 61 65 68 61 65
0 0 0 0 0 0 0 0 3 13 13 13 16 26 19 16 26 26 42 32 32 32 52 68 71 74 81 77 81 77 71 65 71 68 65 68 68 68 61 71 71 71 71 71 65 55 61 58 55
0 0 0 0 0 0 0 0 3 13 13 13 16 23 26 19 23 32 35 42 32 35 39 61 68 74 77 71 74 74 68 68 65 68 61 65 65 65 65 68 68 68 68 68 74 65 61 61 61
0 0 0 0 0 0 0 0 3 10 13 16 16 26 26 23 19 32 39 42 32 29 35 52 68 77 71 71 68 77 74 68 68 65 61 68 68 68 68 68 68 68 68 65 68 65 65 61 61
0 0 0 0 0 0 3 3 3 3 10 10 16 19 26 23 26 29 39 42 35 32 39 55 68 68 65 61 65 71 77 74 71 68 65 65 65 65 68 61 68 68 68 68 71 68 61 65 68
0 0 0 0 0 0 3 3 3 3 6 13 16 19 29 29 35 39 39 42 42 35 48 48 65 68 65 65 65 65 77 68 61 68 65 68 65 61 65 65 65 68 68 68 68 68 68 68 68
0 0 0 0 0 0 0 3 3 6 6 10 13 19 29 39 45 42 39 42 39 48 42 48 61 68 68 61 71 68 71 68 71 71 65 61 68 58 65 65 65 65 68 68 68 71 68 61 65
0 0 0 0 3 0 0 0 3 10 6 13 16 29 32 48 48 48 48 52 48 42 39 39 52 61 61 58 65 52 65 71 71 65 68 61 61 68 65 61 68 68 65 65 68 68 68 61 52
0 0 0 0 0 0 0 0 3 3 6 23 26 35 35 52 52 48 55 42 42 39 39 39 42 52 58 58 55 58 61 65 65 61 68 61 61 65 61 65 65 65 65 65 65 58 55 55 52
0 0 0 3 0 0 0 0 3 10 6 19 26 32 39 48 52 52 52 48 48 45 42 42 42 45 45 61 61 61 58 61 55 55 55 58 61 61 61 68 65 61 58 61 61 55 48 35 39
Height
5896 5896 5896 5896 5895 5895 5895 5894 5893 5891 5890 5889 5888 5887 5886 5886 5885 5886 5883 5881 5881 5880 5879 5879 5878 5878 5878 5877 5877 5877 5877 5876 5876 5876 5876 5876 5877 5877 5877 5878 5878 5879 5880 5880 5881 5882 5882 5883 5883
5899 5899 5899 5897 5896 5898 5898 5896 5895 5893 5892 5891 5890 5889 5888 5887 5885 5884 5883 5882 5881 5880 5880 5879 5879 5878 5878 5878 5877 5877 5876 5876 5876 5876 5876 5876 5876 5876 5877 5877 5878 5879 5879 5880 5881 5882 5882 5882 5883
5901 5901 5899 5899 5900 5900 5900 5898 5897 5895 5894 5893 5892 5891 5889 5888 5887 5885 5884 5883 5882 5881 5880 5880 5879 5879 5878 5878 5877 5877 5876 5876 5876 5876 5875 5875 5875 5876 5877 5877 5878 5878 5879 5880 5881 5881 5881 5882 5882
5903 5902 5901 5903 5903 5903 5902 5900 5899 5897 5896 5894 5893 5892 5890 5889 5888 5887 5885 5884 5883 5882 5881 5880 5880 5879 5878 5878 5877 5877 5876 5875 5875 5875 5874 5874 5874 5875 5876 5877 5877 5878 5879 5880 5880 5881 5881 5881 5882
5904 5903 5904 5905 5906 5905 5904 5902 5901 5900 5897 5896 5895 5893 5891 5890 5889 5888 5887 5886 5884 5883 5882 5881 5880 5879 5879 5878 5877 5877 5876 5875 5874 5874 5873 5871 5873 5875 5876 5877 5877 5878 5879 5880 5880 5880 5881 5881 5881
5905 5904 5907 5908 5908 5907 5906 5904 5903 5901 5899 5897 5896 5894 5893 5892 5890 5889 5888 5886 5885 5884 5883 5882 5881 5880 5879 5879 5878 5877 5876 5875 5874 5873 5872 5870 5872 5875 5876 5877 5877 5878 5879 5879 5880 5880 5880 5881 5881
5909 5908 5909 5911 5910 5909 5907 5905 5904 5902 5900 5899 5897 5896 5894 5893 5891 5890 5888 5887 5886 5885 5884 5882 5882 5881 5880 5879 5878 5877 5876 5875 5874 5874 5874 5874 5875 5876 5876 5877 5877 5878 5879 5879 5880 5880 5880 5880 5880
5911 5912 5911 5913 5912 5911 5909 5907 5905 5904 5902 5900 5899 5897 5895 5894 5893 5891 5889 5888 5886 5885 5884 5883 5882 5882 5881 5880 5878 5877 5876 5874 5874 5874 5875 5876 5876 5877 5877 5877 5877 5878 5879 5879 5880 5880 5880 5880 5880
5912 5914 5914 5914 5914 5912 5911 5909 5907 5905 5903 5902 5900 5899 5897 5895 5894 5892 5890 5889 5887 5886 5885 5884 5883 5882 5881 5880 5878 5876 5875 5874 5875 5875 5876 5877 5877 5877 5878 5878 5878 5878 5879 5879 5879 5880 5880 5880 5880
5916 5916 5916 5916 5915 5914 5912 5910 5908 5906 5905 5903 5901 5900 5898 5897 5895 5893 5892 5890 5889 5887 5886 5885 5884 5883 5882 5880 5879 5876 5874 5874 5876 5877 5877 5878 5878 5878 5878 5878 5879 5879 5879 5879 5879 5879 5879 5879 5879
5918 5918 5917 5917 5916 5915 5914 5912 5910 5908 5906 5905 5903 5901 5899 5898 5896 5894 5893 5891 5890 5889 5887 5886 5885 5884 5883 5881 5880 5878 5876 5876 5877 5878 5878 5879 5879 5879 5879 5879 5879 5879 5879 5879 5879 5879 5879 5879 5879
5919 5919 5918 5918 5917 5916 5915 5913 5911 5910 5908 5906 5904 5902 5901 5899 5898 5896 5894 5893 5891 5890 5889 5887 5886 5885 5884 5882 5881 5880 5880 5879 5879 5879 5879 5879 5879 5879 5879 5879 5879 5879 5879 5879 5879 5879 5879 5879 5879
5919 5919 5919 5918 5918 5917 5915 5914 5912 5911 5909 5907 5905 5904 5902 5900 5898 5897 5895 5893 5892 5891 5890 5889 5887 5886 5885 5884 5882 5882 5881 5881 5881 5880 5880 5880 5880 5880 5880 5880 5880 5879 5879 5879 5879 5879 5879 5878 5878
5919 5919 5919 5918 5918 5917 5916 5915 5913 5912 5909 5908 5906 5904 5902 5901 5899 5897 5896 5894 5893 5892 5891 5890 5889 5887 5886 5885 5884 5883 5882 5882 5882 5881 5881 5881 5881 5881 5880 5880 5880 5879 5879 5878 5879 5879 5878 5878 5878
5918 5918 5919 5919 5919 5918 5917 5916 5914 5912 5910 5908 5906 5905 5903 5901 5900 5898 5897 5895 5894 5893 5891 5890 5889 5888 5887 5886 5885 5884 5883 5883 5882 5882 5882 5881 5881 5881 5881 5880 5880 5879 5878 5878 5878 5878 5878 5877 5877
5918 5918 5919 5920 5920 5919 5919 5917 5915 5912 5911 5909 5907 5905 5904 5902 5900 5899 5898 5896 5894 5893 5892 5891 5890 5889 5888 5887 5886 5885 5884 5883 5883 5882 5882 5881 5881 5881 5881 5880 5880 5879 5878 5877 5877 5877 5877 5876 5876
5919 5919 5920 5921 5921 5920 5919 5917 5915 5913 5911 5909 5907 5906 5904 5903 5901 5900 5898 5897 5895 5894 5893 5892 5891 5890 5889 5888 5887 5886 5885 5884 5883 5882 5882 5881 5881 5881 5880 5880 5879 5878 5877 5877 5876 5876 5875 5875 5875
5920 5922 5922 5921 5921 5920 5918 5917 5915 5913 5910 5908 5907 5906 5905 5903 5902 5900 5899 5897 5896 5895 5894 5893 5892 5891 5889 5888 5887 5886 5885 5884 5883 5882 5882 5881 5881 5880 5880 5879 5878 5877 5876 5876 5875 5875 5874 5874 5873
5918 5920 5921 5921 5920 5919 5917 5916 5915 5912 5910 5909 5907 5906 5904 5903 5901 5900 5899 5898 5896 5895 5894 5893 5892 5891 5890 5889 5887 5886 5885 5884 5883 5882 5881 5881 5880 5880 5879 5878 5877 5877 5876 5875 5874 5874 5873 5873 5872
5916 5917 5918 5919 5918 5917 5916 5915 5913 5912 5910 5909 5907 5906 5904 5903 5901 5900 5899 5898 5896 5895 5893 5892 5891 5890 5889 5888 5887 5886 5885 5884 5883 5882 5881 5880 5880 5879 5878 5877 5877 5876 5875 5874 5873 5873 5872 5871 5870
5915 5916 5917 5917 5916 5915 5915 5913 5911 5910 5910 5908 5906 5905 5904 5902 5901 5899 5898 5897 5896 5894 5893 5892 5891 5890 5889 5888 5887 5886 5884 5883 5882 5881 5880 5879 5879 5878 5877 5876 5876 5875 5874 5872 5872 5871 5870 5870 5869
5913 5914 5914 5914 5914 5913 5913 5912 5910 5908 5908 5906 5905 5904 5902 5901 5900 5898 5897 5896 5895 5893 5892 5891 5890 5889 5888 5887 5886 5885 5883 5882 5881 5880 5879 5878 5877 5877 5876 5875 5874 5873 5872 5871 5870 5869 5869 5868 5867
5910 5911 5911 5911 5911 5911 5911 5911 5910 5907 5906 5905 5903 5902 5900 5899 5898 5897 5895 5894 5893 5892 5891 5890 5889 5888 5887 5886 5885 5884 5883 5881 5880 5879 5878 5877 5877 5876 5875 5874 5873 5872 5870 5869 5868 5868 5867 5866 5865
5908 5909 5908 5908 5908 5909 5909 5909 5908 5905 5904 5903 5902 5900 5898 5897 5896 5895 5894 5893 5891 5890 5889 5888 5888 5887 5886 5885 5884 5883 5881 5880 5879 5878 5877 5876 5875 5875 5874 5873 5871 5870 5869 5868 5867 5866 5865 5864 5863
5906 5907 5907 5907 5907 5907 5907 5908 5907 5904 5902 5901 5900 5898 5895 5895 5894 5892 5891 5890 5889 5888 5887 5886 5885 5885 5884 5883 5882 5881 5880 5879 5877 5876 5876 5875 5874 5873 5872 5871 5870 5869 5868 5867 5865 5864 5863 5862 5861
5902 5904 5905 5906 5906 5906 5906 5905 5904 5901 5901 5899 5898 5896 5893 5892 5892 5891 5889 5887 5886 5885 5884 5884 5883 5882 5881 5881 5880 5879 5878 5877 5876 5875 5874 5873 5872 5871 5870 5869 5868 5867 5866 5865 5864 5862 5861 5860 5858
5898 5899 5902 5902 5902 5902 5902 5902 5899 5898 5897 5896 5895 5893 5890 5889 5889 5888 5886 5885 5884 5883 5882 5881 5880 5879 5878 5878 5877 5876 5876 5875 5874 5873 5872 5871 5870 5869 5868 5867 5866 5865 5864 5863 5861 5860 5858 5857 5855
5894 5896 5898 5898 5898 5898 5898 5897 5896 5894 5894 5892 5890 5889 5887 5886 5885 5884 5883 5881 5880 5879 5878 5878 5877 5876 5876 5875 5874 5874 5873 5872 5871 5870 5870 5869 5868 5867 5866 5865 5864 5863 5862 5860 5859 5857 5856 5854 5852
5891 5892 5892 5894 5894 5895 5895 5896 5892 5890 5890 5888 5886 5885 5884 5882 5881 5880 5878 5877 5877 5876 5875 5874 5874 5873 5872 5872 5871 5870 5869 5869 5868 5867 5867 5866 5865 5864 5863 5862 5861 5860 5859 5857 5856 5854 5853 5851 5849
5886 5887 5888 5890 5890 5890 5891 5893 5887 5886 5885 5883 5882 5882 5881 5878 5877 5875 5874 5874 5873 5872 5872 5871 5870 5869 5868 5868 5867 5867 5866 5865 5865 5864 5863 5863 5862 5861 5860 5859 5858 5857 5855 5854 5852 5851 5849 5848 5846
Wind_Speed
15 15 15 15 16 14 10 9 7 7 7 7 6 6 6 5 6 6 6 6 5 4 4 4 4 3 3 3 2 1 0 0 1 2 3 3 4 4 4 4 5 5 5 4 3 3 3 3 2
15 14 14 16 16 12 10 9 8 8 7 7 7 7 6 6 6 6 6 6 6 6 5 4 3 3 3 3 2 2 1 1 1 2 3 3 4 4 4 4 5 5 5 4 4 3 3 4 3
15 14 16 16 13 10 8 9 9 8 8 7 7 7 7 7 7 7 7 7 7 6 6 5 4 4 4 3 2 2 2 2 2 2 3 4 4 4 4 4 5 5 4 4 3 4 3 4 4
15 16 17 16 12 10 9 9 9 8 8 8 7 7 7 7 7 7 7 7 7 7 6 5 5 5 4 4 3 2 3 3 3 3 4 4 4 4 4 4 4 4 4 4 3 3 3 4 3
14 17 17 14 11 9 9 9 9 9 9 8 8 8 8 7 7 7 8 8 8 8 7 6 6 5 5 4 3 3 4 3 3 3 3 3 4 4 4 4 4 4 4 4 3 3 3 3 3
14 15 15 12 10 10 9 9 8 8 9 8 8 8 8 8 8 8 8 8 8 8 7 7 6 6 6 5 4 3 4 3 3 2 2 0 3 3 3 3 3 3 4 4 4 4 3 3 3
13 14 13 11 10 9 8 8 9 9 10 9 8 8 9 9 8 8 8 8 8 7 7 7 6 6 6 6 5 4 4 4 2 1 1 1 1 2 2 2 3 3 3 3 3 3 3 3 2
13 12 11 9 9 9 9 9 9 9 10 10 9 9 9 9 9 9 9 8 8 8 7 7 6 6 7 6 6 6 6 5 2 1 2 2 1 0 0 1 2 2 3 3 3 3 3 3 2
12 11 10 8 9 9 9 9 9 10 10 10 10 9 9 9 10 10 9 8 9 8 8 7 7 6 7 7 7 7 5 4 3 2 3 2 1 1 1 1 1 2 2 3 3 3 2 2 2
9 9 7 7 8 9 9 9 9 10 9 9 10 10 10 10 10 10 10 10 10 9 8 8 8 8 7 7 7 7 5 3 3 3 3 3 2 1 1 1 1 1 1 2 4 3 2 1 2
6 5 6 7 7 8 9 9 8 9 10 9 10 10 10 10 10 10 10 10 10 10 9 9 8 8 8 8 8 7 6 4 3 3 3 3 3 3 2 1 2 2 2 3 3 3 2 2 3
4 3 5 6 6 7 8 8 8 8 9 10 10 10 10 10 10 10 10 10 10 10 9 9 9 9 8 8 7 6 5 3 2 2 2 3 3 3 3 2 2 3 3 3 3 2 2 2 3
3 4 5 6 7 8 8 8 8 8 9 10 10 10 10 10 10 10 10 9 9 9 10 10 9 9 9 8 7 7 6 4 3 2 2 3 3 4 3 3 4 3 4 4 3 3 3 4 4
3 3 5 6 7 7 8 9 10 9 9 10 11 11 11 10 10 11 10 9 9 9 9 9 9 9 9 8 8 7 5 5 5 4 4 4 4 4 4 4 4 4 4 3 3 3 3 4 4
2 3 4 6 7 7 8 9 9 9 10 11 11 12 11 11 11 11 10 10 9 9 9 8 9 9 9 9 8 8 6 6 6 6 5 5 5 5 5 5 6 5 5 4 4 4 4 5 5
4 4 4 5 8 8 8 8 10 11 11 11 11 11 11 10 10 10 10 10 10 10 9 8 8 8 8 8 8 8 7 6 6 6 5 5 5 5 5 6 6 6 6 5 4 5 6 6 6
3 6 5 5 7 8 8 9 10 11 12 11 11 11 11 10 10 10 10 10 10 9 9 9 9 9 8 8 8 8 7 6 6 5 5 6 6 5 6 7 7 7 7 7 6 6 7 7 7
2 4 6 5 7 8 8 8 9 11 12 12 12 11 10 10 10 10 10 10 10 9 9 8 8 8 8 8 8 8 7 7 7 6 6 6 6 7 7 7 7 8 7 8 7 7 7 7 7
4 5 6 7 6 8 8 9 8 10 12 12 12 12 11 11 10 11 10 10 9 9 9 8 8 8 8 8 8 8 7 7 7 7 6 6 6 7 7 7 8 8 8 8 7 7 7 8 8
7 7 5 7 8 8 8 9 10 10 11 12 12 12 11 11 11 11 10 10 10 10 10 9 9 8 8 8 9 9 8 8 7 7 7 7 7 7 7 7 7 7 8 8 7 8 8 9 9
9 8 7 8 8 8 10 10 11 10 11 12 12 12 12 12 11 11 10 10 10 10 10 9 8 8 8 9 9 10 9 9 8 8 8 7 7 7 7 7 7 8 8 8 8 8 9 9 10
10 9 10 10 9 9 8 13 12 13 13 13 12 13 13 12 12 12 11 11 11 10 10 9 9 9 9 10 10 10 10 10 9 8 8 8 7 7 8 8 8 8 9 9 9 9 9 10 10
12 11 10 10 11 11 10 12 12 13 15 14 13 14 14 14 13 12 12 12 11 11 10 10 10 10 10 11 11 11 11 10 10 9 9 8 8 8 9 9 9 9 10 10 10 10 10 11 11
12 12 11 11 11 12 10 11 13 14 13 14 14 15 14 14 14 14 14 14 13 12 12 11 11 10 11 11 11 11 11 11 10 10 9 9 9 9 9 10 10 10 10 11 11 11 11 11 12
14 13 12 11 12 13 10 11 13 13 13 15 17 15 13 15 15 15 15 15 14 14 13 12 12 12 12 12 12 12 11 11 11 10 10 10 10 9 9 10 10 10 11 11 11 12 12 13 13
15 15 13 12 12 12 12 13 14 13 14 16 17 16 16 16 16 16 16 16 15 15 14 13 13 13 13 13 13 13 12 11 11 10 11 11 11 11 11 11 11 12 12 12 12 13 13 13 14
16 15 14 15 14 15 14 13 14 15 16 15 16 16 16 17 16 16 16 16 17 16 15 14 14 14 14 14 13 13 12 12 12 12 12 12 12 12 12 12 12 12 13 13 13 13 13 14 14
18 15 15 17 17 16 15 13 15 17 17 17 17 16 16 17 16 16 17 17 16 16 16 16 15 15 15 15 14 14 14 13 13 13 14 14 13 13 13 13 13 13 13 14 13 13 14 14 15
18 18 18 17 17 16 16 16 18 18 17 18 18 17 18 19 18 18 17 17 17 17 17 16 16 16 16 15 15 15 15 15 15 15 15 15 15 15 15 14 14 14 15 15 15 15 16 16 16
20 20 19 19 19 17 18 19 19 18 16 17 18 19 19 18 18 19 19 18 18 18 18 17 18 17 16 16 16 16 16 16 16 16 16 15 15 16 16 16 16 16 17 17 16 16 17 17 17
Wind_Direction
78 75 70 63 55 51 43 31 26 32 32 34 31 26 31 31 25 23 21 20 21 21 21 22 22 20 10 4 357 337 333 247 241 246 262 251 244 240 234 234 235 237 236 231 218 217 226 239 252
77 75 69 58 51 43 34 30 27 29 30 27 27 23 28 30 29 27 21 16 18 15 17 15 13 9 359 356 360 316 296 330 263 250 260 255 245 242 238 241 241 237 232 222 216 222 233 245 255
80 74 66 56 46 35 28 28 29 24 26 25 25 25 25 26 24 19 16 16 17 18 19 16 6 2 1 5 8 329 327 311 294 278 265 254 244 238 236 239 233 229 229 224 225 231 246 252 258
79 69 59 51 41 32 28 26 29 25 20 20 21 22 21 22 20 17 17 17 16 15 19 13 12 8 14 12 5 347 335 313 292 279 269 248 236 233 233 231 216 219 228 232 229 230 244 249 264
83 70 57 41 26 22 25 26 27 26 15 14 14 15 17 17 16 15 16 17 15 14 17 14 15 16 10 8 10 7 348 313 303 305 299 257 218 216 225 225 221 223 227 233 234 236 245 251 269
78 61 53 39 20 16 19 18 18 20 14 10 15 19 20 16 15 14 10 13 15 13 12 7 12 17 20 10 358 358 352 339 332 338 338 275 178 193 207 216 226 223 224 235 238 238 239 248 271
76 70 57 32 15 9 10 13 16 18 14 14 16 20 22 20 16 14 13 11 12 12 7 8 12 14 16 10 12 10 4 2 351 349 20 73 164 187 195 202 215 221 229 239 243 243 247 257 268
81 73 59 37 13 9 8 15 17 17 16 17 18 17 19 20 17 16 16 16 15 15 15 9 8 9 6 8 15 13 6 14 15 46 79 90 103 50 201 196 211 224 230 236 249 252 260 271 289
70 64 47 29 18 16 12 12 13 15 18 16 18 19 17 21 19 20 19 20 22 16 15 10 8 8 5 7 8 9 11 23 33 66 78 74 78 11 8 340 240 242 242 251 260 270 269 277 290
59 46 42 31 28 21 15 14 12 11 13 10 10 13 16 18 19 19 20 21 21 19 16 15 11 7 7 11 9 13 16 37 54 57 53 55 52 21 2 316 329 301 266 271 279 281 296 291 292
52 31 32 22 21 20 15 11 14 5 1 3 6 7 11 12 16 14 16 15 17 19 18 19 18 16 10 9 9 15 23 46 61 45 35 33 34 27 16 329 321 327 305 290 300 318 336 321 303
50 33 37 20 15 17 12 6 7 3 359 358 1 5 7 9 11 8 8 14 14 17 18 18 17 16 14 13 13 17 23 33 22 23 25 30 24 15 14 3 339 326 313 309 314 323 324 319 323
51 35 22 13 12 10 2 7 2 6 1 358 358 358 0 4 6 6 2 3 9 13 14 14 16 15 15 17 18 16 14 24 18 9 16 19 10 5 8 349 343 348 328 327 327 333 322 324 329
50 35 17 9 10 5 358 5 2 359 353 354 354 355 358 2 2 2 1 1 4 6 12 12 12 12 14 14 14 13 11 15 13 6 4 7 1 358 356 343 349 344 335 337 334 325 320 319 317
5 6 18 10 1 354 348 356 353 345 342 345 349 353 356 357 358 0 2 4 4 5 6 6 8 9 11 14 14 16 14 12 9 4 356 353 350 348 347 340 342 344 341 331 323 317 309 312 313
337 345 350 354 345 345 338 341 346 336 337 341 347 350 353 356 357 358 1 1 1 3 4 5 9 9 10 13 12 13 14 7 1 1 351 341 337 339 342 341 341 346 346 337 322 311 300 302 307
328 328 332 327 325 327 327 334 340 332 333 336 341 347 350 353 352 353 357 358 358 360 1 3 7 9 9 9 9 7 6 359 351 349 342 339 338 334 330 330 332 333 337 335 328 314 308 308 310
277 297 301 300 306 309 309 313 328 327 329 332 336 340 342 347 346 345 349 353 356 357 357 355 355 360 1 359 359 360 358 354 347 343 333 328 330 330 328 325 326 327 332 332 325 320 316 316 314
235 240 272 288 289 296 306 309 312 317 315 323 329 332 334 336 336 339 342 344 350 353 351 346 345 349 351 351 350 350 350 349 345 341 339 331 325 325 327 326 322 325 326 323 320 315 317 318 315
254 257 264 284 288 294 302 307 306 309 312 319 320 321 323 328 330 332 337 340 344 345 343 339 333 338 341 343 343 342 341 341 340 335 335 331 326 326 328 328 324 324 323 321 320 319 318 317 316
251 258 258 265 276 294 303 296 298 309 317 316 318 318 318 322 324 325 332 336 337 339 337 330 330 331 333 334 335 336 334 336 335 334 332 329 323 324 329 331 324 321 319 317 316 318 317 316 315
254 255 261 264 275 279 281 291 296 311 317 317 319 314 313 316 318 318 322 327 327 330 330 323 322 325 328 330 333 335 336 334 333 333 330 326 323 324 325 326 323 319 315 314 315 316 316 316 318
250 254 263 268 268 273 275 286 297 301 304 307 310 308 310 311 313 315 317 320 319 318 320 318 315 317 321 323 326 329 330 329 330 330 326 325 321 321 323 323 320 317 316 316 315 316 315 316 316
252 259 262 269 274 279 283 283 287 281 291 300 301 301 304 310 310 312 314 314 314 314 314 313 313 313 316 317 320 323 325 325 324 323 322 321 321 322 325 324 323 319 317 316 316 318 316 315 313
254 260 265 277 282 288 288 277 276 277 284 291 296 297 298 302 306 311 313 313 311 311 309 307 309 309 310 310 313 316 317 318 320 320 321 320 320 319 320 321 319 318 318 316 316 315 315 314 312
252 256 260 270 278 284 275 271 266 270 276 284 291 293 293 294 300 307 308 307 310 310 308 302 303 304 304 305 306 309 312 313 315 315 315 315 315 316 316 317 316 313 313 312 312 312 311 314 313
248 250 254 262 271 275 270 264 269 271 274 279 282 283 286 291 297 300 302 301 303 304 307 302 301 302 302 301 300 303 306 306 307 309 310 312 312 312 313 312 311 308 307 308 308 309 311 311 314
248 251 253 256 259 269 278 274 278 278 279 280 276 283 286 293 294 297 300 301 303 304 307 303 300 300 299 296 293 295 298 299 301 304 306 305 307 307 310 311 310 310 309 309 311 313 311 313 312
252 249 247 252 254 265 277 274 272 273 280 282 282 289 291 290 294 296 294 297 300 299 299 297 295 294 294 292 291 292 295 296 297 300 302 302 302 302 304 306 309 310 308 308 310 312 313 313 312
251 250 248 253 255 255 267 274 274 271 273 276 281 283 285 284 286 289 293 292 293 292 294 297 294 292 290 288 289 290 293 292 293 296 299 299 300 301 302 303 303 305 307 306 307 309 311 312 312